Year,Month,Day,Hour,Minute,Value (Times are PST for temperature in C)
2013,07,01,00,00,18.50
2013,07,01,00,01,18.50
2013,07,01,00,02,18.50
2013,07,01,00,03,18.50
2013,07,01,00,04,18.50
2013,07,01,00,05,18.50
2013,07,01,00,06,18.50
2013,07,01,00,07,18.50
2013,07,01,00,08,18.50
2013,07,01,00,09,18.50
2013,07,01,00,10,18.40
2013,07,01,00,11,18.40
2013,07,01,00,12,18.40
2013,07,01,00,13,18.40
2013,07,01,00,14,18.40
2013,07,01,00,15,18.40
2013,07,01,00,16,18.40
2013,07,01,00,17,18.40
2013,07,01,00,18,18.40
2013,07,01,00,19,18.40
2013,07,01,00,20,18.30
2013,07,01,00,21,18.30
2013,07,01,00,22,18.30
2013,07,01,00,23,18.30
2013,07,01,00,24,18.30
2013,07,01,00,25,18.30
2013,07,01,00,26,18.30
2013,07,01,00,27,18.30
2013,07,01,00,28,18.30
2013,07,01,00,29,18.30
2013,07,01,00,30,18.30
2013,07,01,00,31,18.30
2013,07,01,00,32,18.30
2013,07,01,00,33,18.30
2013,07,01,00,34,18.30
2013,07,01,00,35,18.30
2013,07,01,00,36,18.20
2013,07,01,00,37,18.20
2013,07,01,00,38,18.20
2013,07,01,00,39,18.20
2013,07,01,00,40,18.20
2013,07,01,00,41,18.20
2013,07,01,00,42,18.20
2013,07,01,00,43,18.20
2013,07,01,00,44,18.20
2013,07,01,00,45,18.20
2013,07,01,00,46,18.20
2013,07,01,00,47,18.20
2013,07,01,00,48,18.20
2013,07,01,00,49,18.20
2013,07,01,00,50,18.20
2013,07,01,00,51,18.10
2013,07,01,00,52,18.10
2013,07,01,00,53,18.10
2013,07,01,00,54,18.10
2013,07,01,00,55,18.10
2013,07,01,00,56,18.10
2013,07,01,00,57,18.10
2013,07,01,00,58,18.10
2013,07,01,00,59,18.00
2013,07,01,01,00,18.00
2013,07,01,01,01,18.00
2013,07,01,01,02,18.00
2013,07,01,01,03,18.00
2013,07,01,01,04,18.00
2013,07,01,01,05,18.00
2013,07,01,01,06,18.00
2013,07,01,01,07,18.00
2013,07,01,01,08,18.00
2013,07,01,01,09,18.00
2013,07,01,01,10,18.00
2013,07,01,01,11,17.90
2013,07,01,01,12,17.90
2013,07,01,01,13,17.90
2013,07,01,01,14,17.90
2013,07,01,01,15,17.90
2013,07,01,01,16,17.90
2013,07,01,01,17,17.90
2013,07,01,01,18,17.80
2013,07,01,01,19,17.80
2013,07,01,01,20,17.80
2013,07,01,01,21,17.80
2013,07,01,01,22,17.80
2013,07,01,01,23,17.80
2013,07,01,01,24,17.80
2013,07,01,01,25,17.80
2013,07,01,01,26,17.80
2013,07,01,01,27,17.80
2013,07,01,01,28,17.80
2013,07,01,01,29,17.80
2013,07,01,01,30,17.80
2013,07,01,01,31,17.80
2013,07,01,01,32,17.80
2013,07,01,01,33,17.70
2013,07,01,01,34,17.70
2013,07,01,01,35,17.70
2013,07,01,01,36,17.70
2013,07,01,01,37,17.70
2013,07,01,01,38,17.70
2013,07,01,01,39,17.70
2013,07,01,01,40,17.70
2013,07,01,01,41,17.70
2013,07,01,01,42,17.70
2013,07,01,01,43,17.70
2013,07,01,01,44,17.70
2013,07,01,01,45,17.70
2013,07,01,01,46,17.70
2013,07,01,01,47,17.70
2013,07,01,01,48,17.70
2013,07,01,01,49,17.70
2013,07,01,01,50,17.70
2013,07,01,01,51,17.70
2013,07,01,01,52,17.70
2013,07,01,01,53,17.70
2013,07,01,01,54,17.70
2013,07,01,01,55,17.70
2013,07,01,01,56,17.60
2013,07,01,01,57,17.60
2013,07,01,01,58,17.60
2013,07,01,01,59,17.60
2013,07,01,02,00,17.60
2013,07,01,02,01,17.60
2013,07,01,02,02,17.60
2013,07,01,02,03,17.60
2013,07,01,02,04,17.60
2013,07,01,02,05,17.60
2013,07,01,02,06,17.60
2013,07,01,02,07,17.60
2013,07,01,02,08,17.50
2013,07,01,02,09,17.50
2013,07,01,02,10,17.50
2013,07,01,02,11,17.50
2013,07,01,02,12,17.50
2013,07,01,02,13,17.50
2013,07,01,02,14,17.40
2013,07,01,02,15,17.40
2013,07,01,02,16,17.40
2013,07,01,02,17,17.40
2013,07,01,02,18,17.40
2013,07,01,02,19,17.40
2013,07,01,02,20,17.40
2013,07,01,02,21,17.40
2013,07,01,02,22,17.40
2013,07,01,02,23,17.40
2013,07,01,02,24,17.40
2013,07,01,02,25,17.40
2013,07,01,02,26,17.40
2013,07,01,02,27,17.40
2013,07,01,02,28,17.40
2013,07,01,02,29,17.40
2013,07,01,02,30,17.40
2013,07,01,02,31,17.40
2013,07,01,02,32,17.40
2013,07,01,02,33,17.40
2013,07,01,02,34,17.40
2013,07,01,02,35,17.30
2013,07,01,02,36,17.30
2013,07,01,02,37,17.30
2013,07,01,02,38,17.30
2013,07,01,02,39,17.30
2013,07,01,02,40,17.30
2013,07,01,02,41,17.30
2013,07,01,02,42,17.30
2013,07,01,02,43,17.30
2013,07,01,02,44,17.30
2013,07,01,02,45,17.30
2013,07,01,02,46,17.30
2013,07,01,02,47,17.30
2013,07,01,02,48,17.20
2013,07,01,02,49,17.20
2013,07,01,02,50,17.20
2013,07,01,02,51,17.20
2013,07,01,02,52,17.20
2013,07,01,02,53,17.20
2013,07,01,02,54,17.20
2013,07,01,02,55,17.10
2013,07,01,02,56,17.10
2013,07,01,02,57,17.10
2013,07,01,02,58,17.10
2013,07,01,02,59,17.10
2013,07,01,03,00,17.10
2013,07,01,03,01,17.10
2013,07,01,03,02,17.10
2013,07,01,03,06,17.10
2013,07,01,03,07,17.10
2013,07,01,03,08,17.10
2013,07,01,03,09,17.10
2013,07,01,03,10,17.10
2013,07,01,03,11,17.10
2013,07,01,03,12,17.10
2013,07,01,03,13,17.10
2013,07,01,03,14,17.10
2013,07,01,03,15,17.10
2013,07,01,03,16,17.10
2013,07,01,03,17,17.10
2013,07,01,03,18,17.10
2013,07,01,03,19,17.10
2013,07,01,03,20,17.10
2013,07,01,03,21,17.00
2013,07,01,03,22,17.00
2013,07,01,03,23,17.00
2013,07,01,03,24,17.00
2013,07,01,03,25,17.00
2013,07,01,03,26,17.00
2013,07,01,03,27,16.90
2013,07,01,03,28,16.90
2013,07,01,03,29,16.90
2013,07,01,03,30,16.90
2013,07,01,03,31,16.90
2013,07,01,03,32,16.90
2013,07,01,03,33,16.80
2013,07,01,03,34,16.80
2013,07,01,03,35,16.80
2013,07,01,03,36,16.80
2013,07,01,03,37,16.80
2013,07,01,03,38,16.80
2013,07,01,03,39,16.80
2013,07,01,03,40,16.80
2013,07,01,03,41,16.80
2013,07,01,03,42,16.80
2013,07,01,03,43,16.80
2013,07,01,03,44,16.80
2013,07,01,03,45,16.80
2013,07,01,03,46,16.80
2013,07,01,03,47,16.80
2013,07,01,03,48,16.80
2013,07,01,03,49,16.80
2013,07,01,03,50,16.80
2013,07,01,03,51,16.80
2013,07,01,03,52,16.80
2013,07,01,03,53,16.80
2013,07,01,03,54,16.80
2013,07,01,03,55,16.80
2013,07,01,03,56,16.80
2013,07,01,03,57,16.80
2013,07,01,03,58,16.80
2013,07,01,03,59,16.80
2013,07,01,04,00,16.80
2013,07,01,04,01,16.80
2013,07,01,04,02,16.80
2013,07,01,04,03,16.80
2013,07,01,04,04,16.80
2013,07,01,04,05,16.80
2013,07,01,04,06,16.80
2013,07,01,04,07,16.80
2013,07,01,04,08,16.80
2013,07,01,04,09,16.80
2013,07,01,04,10,16.80
2013,07,01,04,11,16.80
2013,07,01,04,12,16.80
2013,07,01,04,13,16.80
2013,07,01,04,14,16.80
2013,07,01,04,15,16.80
2013,07,01,04,16,16.80
2013,07,01,04,17,16.80
2013,07,01,04,18,16.80
2013,07,01,04,19,16.80
2013,07,01,04,20,16.80
2013,07,01,04,21,16.80
2013,07,01,04,22,16.80
2013,07,01,04,23,16.80
2013,07,01,04,24,16.80
2013,07,01,04,25,16.80
2013,07,01,04,26,16.80
2013,07,01,04,27,16.80
2013,07,01,04,28,16.80
2013,07,01,04,29,16.80
2013,07,01,04,30,16.80
2013,07,01,04,31,16.80
2013,07,01,04,32,16.80
2013,07,01,04,33,16.80
2013,07,01,04,34,16.80
2013,07,01,04,35,16.80
2013,07,01,04,36,16.80
2013,07,01,04,37,16.80
2013,07,01,04,38,16.70
2013,07,01,04,39,16.70
2013,07,01,04,40,16.70
2013,07,01,04,41,16.70
2013,07,01,04,42,16.70
2013,07,01,04,43,16.70
2013,07,01,04,44,16.70
2013,07,01,04,45,16.70
2013,07,01,04,46,16.70
2013,07,01,04,47,16.70
2013,07,01,04,48,16.70
2013,07,01,04,49,16.70
2013,07,01,04,50,16.70
2013,07,01,04,51,16.70
2013,07,01,04,52,16.70
2013,07,01,04,53,16.70
2013,07,01,04,54,16.70
2013,07,01,04,55,16.70
2013,07,01,04,56,16.70
2013,07,01,04,57,16.70
2013,07,01,04,58,16.70
2013,07,01,04,59,16.70
2013,07,01,05,00,16.70
2013,07,01,05,01,16.80
2013,07,01,05,02,16.80
2013,07,01,05,03,16.80
2013,07,01,05,04,16.80
2013,07,01,05,05,16.80
2013,07,01,05,06,16.80
2013,07,01,05,07,16.80
2013,07,01,05,08,16.80
2013,07,01,05,09,16.80
2013,07,01,05,10,16.80
2013,07,01,05,11,16.80
2013,07,01,05,12,16.80
2013,07,01,05,13,16.80
2013,07,01,05,14,16.80
2013,07,01,05,15,16.80
2013,07,01,05,16,16.80
2013,07,01,05,17,16.80
2013,07,01,05,18,16.80
2013,07,01,05,19,16.80
2013,07,01,05,20,16.80
2013,07,01,05,21,16.80
2013,07,01,05,22,16.80
2013,07,01,05,23,16.80
2013,07,01,05,24,16.80
2013,07,01,05,25,16.90
2013,07,01,05,26,16.90
2013,07,01,05,27,17.00
2013,07,01,05,28,17.00
2013,07,01,05,29,17.10
2013,07,01,05,30,17.10
2013,07,01,05,31,17.10
2013,07,01,05,32,17.20
2013,07,01,05,33,17.20
2013,07,01,05,34,17.30
2013,07,01,05,35,17.40
2013,07,01,05,36,17.50
2013,07,01,05,37,17.60
2013,07,01,05,38,17.60
2013,07,01,05,39,17.70
2013,07,01,05,40,17.80
2013,07,01,05,41,17.80
2013,07,01,05,42,17.90
2013,07,01,05,43,18.00
2013,07,01,05,44,18.00
2013,07,01,05,45,18.10
2013,07,01,05,46,18.10
2013,07,01,05,47,18.20
2013,07,01,05,48,18.20
2013,07,01,05,49,18.30
2013,07,01,05,50,18.30
2013,07,01,05,51,18.40
2013,07,01,05,52,18.40
2013,07,01,05,53,18.50
2013,07,01,05,54,18.60
2013,07,01,05,55,18.60
2013,07,01,05,56,18.70
2013,07,01,05,57,18.70
2013,07,01,05,58,18.80
2013,07,01,05,59,18.80
2013,07,01,06,00,18.90
2013,07,01,06,01,18.90
2013,07,01,06,02,18.90
2013,07,01,06,03,19.00
2013,07,01,06,04,19.00
2013,07,01,06,05,19.10
2013,07,01,06,06,19.10
2013,07,01,06,07,19.10
2013,07,01,06,08,19.20
2013,07,01,06,09,19.20
2013,07,01,06,10,19.20
2013,07,01,06,11,19.30
2013,07,01,06,12,19.30
2013,07,01,06,13,19.30
2013,07,01,06,14,19.30
2013,07,01,06,15,19.40
2013,07,01,06,16,19.40
2013,07,01,06,17,19.40
2013,07,01,06,18,19.40
2013,07,01,06,19,19.50
2013,07,01,06,20,19.50
2013,07,01,06,21,19.50
2013,07,01,06,22,19.50
2013,07,01,06,23,19.60
2013,07,01,06,24,19.50
2013,07,01,06,25,19.60
2013,07,01,06,26,19.60
2013,07,01,06,27,19.60
2013,07,01,06,28,19.60
2013,07,01,06,29,19.60
2013,07,01,06,30,19.60
2013,07,01,06,31,19.60
2013,07,01,06,32,19.60
2013,07,01,06,33,19.60
2013,07,01,06,34,19.60
2013,07,01,06,35,19.60
2013,07,01,06,36,19.60
2013,07,01,06,37,19.60
2013,07,01,06,38,19.60
2013,07,01,06,39,19.60
2013,07,01,06,40,19.60
2013,07,01,06,41,19.60
2013,07,01,06,42,19.60
2013,07,01,06,43,19.60
2013,07,01,06,44,19.60
2013,07,01,06,45,19.60
2013,07,01,06,46,19.70
2013,07,01,06,47,19.70
2013,07,01,06,48,19.70
2013,07,01,06,49,19.80
2013,07,01,06,50,19.80
2013,07,01,06,51,19.80
2013,07,01,06,52,19.80
2013,07,01,06,53,19.90
2013,07,01,06,54,20.00
2013,07,01,06,55,20.00
2013,07,01,06,56,20.10
2013,07,01,06,57,20.10
2013,07,01,06,58,20.20
2013,07,01,06,59,20.20
2013,07,01,07,00,20.30
2013,07,01,07,01,20.30
2013,07,01,07,02,20.40
2013,07,01,07,03,20.40
2013,07,01,07,04,20.50
2013,07,01,07,05,20.60
2013,07,01,07,06,20.60
2013,07,01,07,07,20.70
2013,07,01,07,08,20.70
2013,07,01,07,09,20.70
2013,07,01,07,10,20.80
2013,07,01,07,11,20.80
2013,07,01,07,12,20.80
2013,07,01,07,13,20.90
2013,07,01,07,14,20.90
2013,07,01,07,15,20.90
2013,07,01,07,16,21.00
2013,07,01,07,17,21.00
2013,07,01,07,18,21.10
2013,07,01,07,19,21.10
2013,07,01,07,20,21.10
2013,07,01,07,21,21.10
2013,07,01,07,22,21.10
2013,07,01,07,23,21.20
2013,07,01,07,24,21.20
2013,07,01,07,25,21.20
2013,07,01,07,26,21.30
2013,07,01,07,27,21.30
2013,07,01,07,28,21.30
2013,07,01,07,29,21.40
2013,07,01,07,30,21.40
2013,07,01,07,31,21.40
2013,07,01,07,32,21.40
2013,07,01,07,33,21.50
2013,07,01,07,34,21.50
2013,07,01,07,35,21.60
2013,07,01,07,36,21.60
2013,07,01,07,37,21.60
2013,07,01,07,38,21.70
2013,07,01,07,39,21.70
2013,07,01,07,40,21.80
2013,07,01,07,41,21.80
2013,07,01,07,42,21.80
2013,07,01,07,43,21.80
2013,07,01,07,44,21.80
2013,07,01,07,45,21.90
2013,07,01,07,46,21.90
2013,07,01,07,47,21.90
2013,07,01,07,48,21.90
2013,07,01,07,49,21.90
2013,07,01,07,50,21.90
2013,07,01,07,51,22.00
2013,07,01,07,52,22.00
2013,07,01,07,53,22.00
2013,07,01,07,54,22.10
2013,07,01,07,55,22.10
2013,07,01,07,56,22.10
2013,07,01,07,57,22.10
2013,07,01,07,58,22.10
2013,07,01,07,59,22.20
2013,07,01,08,00,22.20
2013,07,01,08,01,22.20
2013,07,01,08,02,22.20
2013,07,01,08,03,22.30
2013,07,01,08,04,22.30
2013,07,01,08,05,22.30
2013,07,01,08,06,22.30
2013,07,01,08,07,22.30
2013,07,01,08,08,22.40
2013,07,01,08,09,22.40
2013,07,01,08,10,22.40
2013,07,01,08,11,22.50
2013,07,01,08,12,22.50
2013,07,01,08,13,22.50
2013,07,01,08,14,22.60
2013,07,01,08,15,22.60
2013,07,01,08,16,22.60
2013,07,01,08,17,22.70
2013,07,01,08,18,22.70
2013,07,01,08,19,22.80
2013,07,01,08,20,22.80
2013,07,01,08,21,22.90
2013,07,01,08,22,23.00
2013,07,01,08,23,23.10
2013,07,01,08,24,23.10
2013,07,01,08,25,23.20
2013,07,01,08,26,23.20
2013,07,01,08,27,23.30
2013,07,01,08,28,23.30
2013,07,01,08,29,23.30
2013,07,01,08,30,23.20
2013,07,01,08,31,23.20
2013,07,01,08,32,23.20
2013,07,01,08,33,23.20
2013,07,01,08,34,23.20
2013,07,01,08,35,23.20
2013,07,01,08,36,23.20
2013,07,01,08,37,23.20
2013,07,01,08,38,23.30
2013,07,01,08,39,23.30
2013,07,01,08,40,23.40
2013,07,01,08,41,23.40
2013,07,01,08,42,23.40
2013,07,01,08,43,23.50
2013,07,01,08,44,23.50
2013,07,01,08,45,23.60
2013,07,01,08,46,23.70
2013,07,01,08,47,23.70
2013,07,01,08,48,23.80
2013,07,01,08,49,23.80
2013,07,01,08,50,23.90
2013,07,01,08,51,23.90
2013,07,01,08,52,23.90
2013,07,01,08,53,23.90
2013,07,01,08,54,23.90
2013,07,01,08,55,23.90
2013,07,01,08,56,23.90
2013,07,01,08,57,23.90
2013,07,01,08,58,24.00
2013,07,01,08,59,24.00
2013,07,01,09,00,24.10
2013,07,01,09,01,24.20
2013,07,01,09,02,24.20
2013,07,01,09,03,24.30
2013,07,01,09,04,24.30
2013,07,01,09,05,24.30
2013,07,01,09,06,24.40
2013,07,01,09,07,24.40
2013,07,01,09,08,24.50
2013,07,01,09,09,24.50
2013,07,01,09,10,24.60
2013,07,01,09,11,24.70
2013,07,01,09,12,24.70
2013,07,01,09,13,24.80
2013,07,01,09,14,24.80
2013,07,01,09,15,24.90
2013,07,01,09,16,25.00
2013,07,01,09,17,25.00
2013,07,01,09,18,25.00
2013,07,01,09,19,25.10
2013,07,01,09,20,25.10
2013,07,01,09,21,25.10
2013,07,01,09,22,25.10
2013,07,01,09,23,25.20
2013,07,01,09,24,25.20
2013,07,01,09,25,25.20
2013,07,01,09,26,25.20
2013,07,01,09,27,25.20
2013,07,01,09,28,25.20
2013,07,01,09,29,25.30
2013,07,01,09,30,25.30
2013,07,01,09,31,25.20
2013,07,01,09,32,25.10
2013,07,01,09,33,25.10
2013,07,01,09,34,25.10
2013,07,01,09,35,25.10
2013,07,01,09,36,25.10
2013,07,01,09,37,25.10
2013,07,01,09,38,25.10
2013,07,01,09,39,25.10
2013,07,01,09,40,25.10
2013,07,01,09,41,25.10
2013,07,01,09,42,25.20
2013,07,01,09,43,25.20
2013,07,01,09,44,25.30
2013,07,01,09,45,25.30
2013,07,01,09,46,25.40
2013,07,01,09,47,25.50
2013,07,01,09,48,25.50
2013,07,01,09,49,25.60
2013,07,01,09,50,25.60
2013,07,01,09,51,25.70
2013,07,01,09,52,25.80
2013,07,01,09,53,25.90
2013,07,01,09,54,26.00
2013,07,01,09,55,26.00
2013,07,01,09,56,26.10
2013,07,01,09,57,26.10
2013,07,01,09,58,26.10
2013,07,01,09,59,26.10
2013,07,01,10,00,26.10
2013,07,01,10,01,26.20
2013,07,01,10,02,26.20
2013,07,01,10,03,26.20
2013,07,01,10,04,26.30
2013,07,01,10,05,26.30
2013,07,01,10,06,26.40
2013,07,01,10,07,26.40
2013,07,01,10,08,26.50
2013,07,01,10,09,26.50
2013,07,01,10,10,26.60
2013,07,01,10,11,26.60
2013,07,01,10,12,26.60
2013,07,01,10,13,26.60
2013,07,01,10,14,26.50
2013,07,01,10,15,26.50
2013,07,01,10,16,26.40
2013,07,01,10,17,26.40
2013,07,01,10,18,26.40
2013,07,01,10,19,26.50
2013,07,01,10,20,26.50
2013,07,01,10,21,26.50
2013,07,01,10,22,26.50
2013,07,01,10,23,26.50
2013,07,01,10,24,26.50
2013,07,01,10,25,26.50
2013,07,01,10,26,26.50
2013,07,01,10,27,26.50
2013,07,01,10,28,26.50
2013,07,01,10,29,26.50
2013,07,01,10,30,26.50
2013,07,01,10,31,26.60
2013,07,01,10,32,26.60
2013,07,01,10,33,26.60
2013,07,01,10,34,26.60
2013,07,01,10,35,26.60
2013,07,01,10,36,26.70
2013,07,01,10,37,26.70
2013,07,01,10,38,26.80
2013,07,01,10,39,26.80
2013,07,01,10,40,26.90
2013,07,01,10,41,27.00
2013,07,01,10,42,27.10
2013,07,01,10,43,27.10
2013,07,01,10,44,27.00
2013,07,01,10,45,27.00
2013,07,01,10,46,27.00
2013,07,01,10,47,27.10
2013,07,01,10,48,27.10
2013,07,01,10,49,27.10
2013,07,01,10,50,27.10
2013,07,01,10,51,27.10
2013,07,01,10,52,27.20
2013,07,01,10,53,27.20
2013,07,01,10,54,27.20
2013,07,01,10,55,27.20
2013,07,01,10,56,27.10
2013,07,01,10,57,27.10
2013,07,01,10,58,27.10
2013,07,01,10,59,27.10
2013,07,01,11,00,27.10
2013,07,01,11,01,27.10
2013,07,01,11,02,27.10
2013,07,01,11,03,27.10
2013,07,01,11,04,27.10
2013,07,01,11,05,27.10
2013,07,01,11,06,27.10
2013,07,01,11,07,27.10
2013,07,01,11,08,27.00
2013,07,01,11,09,27.00
2013,07,01,11,10,27.10
2013,07,01,11,11,27.10
2013,07,01,11,12,27.10
2013,07,01,11,13,27.20
2013,07,01,11,14,27.10
2013,07,01,11,15,27.10
2013,07,01,11,16,27.10
2013,07,01,11,17,27.20
2013,07,01,11,18,27.20
2013,07,01,11,19,27.30
2013,07,01,11,20,27.30
2013,07,01,11,21,27.30
2013,07,01,11,22,27.30
2013,07,01,11,23,27.30
2013,07,01,11,24,27.20
2013,07,01,11,25,27.20
2013,07,01,11,26,27.20
2013,07,01,11,27,27.20
2013,07,01,11,28,27.20
2013,07,01,11,29,27.20
2013,07,01,11,30,27.30
2013,07,01,11,31,27.30
2013,07,01,11,32,27.30
2013,07,01,11,33,27.20
2013,07,01,11,34,27.00
2013,07,01,11,35,26.90
2013,07,01,11,36,26.80
2013,07,01,11,37,26.70
2013,07,01,11,38,26.50
2013,07,01,11,39,26.40
2013,07,01,11,40,26.30
2013,07,01,11,41,26.30
2013,07,01,11,42,26.20
2013,07,01,11,43,26.10
2013,07,01,11,44,26.10
2013,07,01,11,45,26.10
2013,07,01,11,46,26.10
2013,07,01,11,47,26.10
2013,07,01,11,48,26.10
2013,07,01,11,49,26.10
2013,07,01,11,50,26.10
2013,07,01,11,51,26.10
2013,07,01,11,52,26.10
2013,07,01,11,53,26.10
2013,07,01,11,54,26.10
2013,07,01,11,55,26.10
2013,07,01,11,56,26.10
2013,07,01,11,57,26.10
2013,07,01,11,58,26.10
2013,07,01,11,59,26.10
2013,07,01,12,00,26.20
2013,07,01,12,01,26.10
2013,07,01,12,02,26.20
2013,07,01,12,03,26.20
2013,07,01,12,04,26.20
2013,07,01,12,05,26.20
2013,07,01,12,06,26.10
2013,07,01,12,07,26.10
2013,07,01,12,08,26.10
2013,07,01,12,09,26.10
2013,07,01,12,10,26.10
2013,07,01,12,11,26.00
2013,07,01,12,12,26.00
2013,07,01,12,13,26.00
2013,07,01,12,14,26.10
2013,07,01,12,15,26.10
2013,07,01,12,16,26.10
2013,07,01,12,17,26.10
2013,07,01,12,18,26.10
2013,07,01,12,19,26.20
2013,07,01,12,20,26.30
2013,07,01,12,21,26.30
2013,07,01,12,22,26.40
2013,07,01,12,23,26.50
2013,07,01,12,24,26.60
2013,07,01,12,25,26.70
2013,07,01,12,26,26.80
2013,07,01,12,27,26.90
2013,07,01,12,28,27.00
2013,07,01,12,29,27.20
2013,07,01,12,30,27.30
2013,07,01,12,31,27.40
2013,07,01,12,32,27.50
2013,07,01,12,33,27.50
2013,07,01,12,34,27.50
2013,07,01,12,35,27.60
2013,07,01,12,36,27.60
2013,07,01,12,37,27.60
2013,07,01,12,38,27.60
2013,07,01,12,39,27.60
2013,07,01,12,40,27.60
2013,07,01,12,41,27.50
2013,07,01,12,42,27.40
2013,07,01,12,43,27.30
2013,07,01,12,44,27.30
2013,07,01,12,45,27.20
2013,07,01,12,46,27.10
2013,07,01,12,47,27.10
2013,07,01,12,48,27.10
2013,07,01,12,49,27.10
2013,07,01,12,50,27.00
2013,07,01,12,51,27.00
2013,07,01,12,52,26.90
2013,07,01,12,53,26.90
2013,07,01,12,54,26.90
2013,07,01,12,55,26.90
2013,07,01,12,56,26.90
2013,07,01,12,57,26.90
2013,07,01,12,58,27.00
2013,07,01,12,59,27.00
2013,07,01,13,00,27.10
2013,07,01,13,01,27.10
2013,07,01,13,02,27.20
2013,07,01,13,03,27.20
2013,07,01,13,04,27.10
2013,07,01,13,05,27.10
2013,07,01,13,06,27.00
2013,07,01,13,07,27.00
2013,07,01,13,08,27.00
2013,07,01,13,09,27.00
2013,07,01,13,10,27.00
2013,07,01,13,11,26.90
2013,07,01,13,12,26.90
2013,07,01,13,13,26.90
2013,07,01,13,14,26.90
2013,07,01,13,15,26.90
2013,07,01,13,16,26.90
2013,07,01,13,17,26.90
2013,07,01,13,18,26.90
2013,07,01,13,19,26.90
2013,07,01,13,20,26.90
2013,07,01,13,21,26.90
2013,07,01,13,22,26.90
2013,07,01,13,23,26.90
2013,07,01,13,24,27.00
2013,07,01,13,25,26.90
2013,07,01,13,26,26.90
2013,07,01,13,27,26.90
2013,07,01,13,28,26.90
2013,07,01,13,29,26.90
2013,07,01,13,30,26.90
2013,07,01,13,31,27.00
2013,07,01,13,32,27.00
2013,07,01,13,33,27.10
2013,07,01,13,34,27.20
2013,07,01,13,35,27.30
2013,07,01,13,36,27.30
2013,07,01,13,37,27.30
2013,07,01,13,38,27.30
2013,07,01,13,39,27.30
2013,07,01,13,40,27.30
2013,07,01,13,41,27.30
2013,07,01,13,42,27.30
2013,07,01,13,43,27.30
2013,07,01,13,44,27.20
2013,07,01,13,45,27.10
2013,07,01,13,46,27.00
2013,07,01,13,47,26.90
2013,07,01,13,48,26.80
2013,07,01,13,49,26.70
2013,07,01,13,50,26.60
2013,07,01,13,51,26.50
2013,07,01,13,52,26.40
2013,07,01,13,53,26.30
2013,07,01,13,54,26.20
2013,07,01,13,55,26.20
2013,07,01,13,56,26.20
2013,07,01,13,57,26.10
2013,07,01,13,58,26.10
2013,07,01,13,59,26.10
2013,07,01,14,00,26.10
2013,07,01,14,01,26.10
2013,07,01,14,02,26.00
2013,07,01,14,03,26.00
2013,07,01,14,04,25.90
2013,07,01,14,05,25.80
2013,07,01,14,06,25.70
2013,07,01,14,07,25.70
2013,07,01,14,08,25.60
2013,07,01,14,09,25.60
2013,07,01,14,10,25.50
2013,07,01,14,11,25.40
2013,07,01,14,12,25.30
2013,07,01,14,13,25.30
2013,07,01,14,14,25.30
2013,07,01,14,15,25.30
2013,07,01,14,16,25.20
2013,07,01,14,17,25.20
2013,07,01,14,18,25.20
2013,07,01,14,19,25.20
2013,07,01,14,20,25.10
2013,07,01,14,21,25.00
2013,07,01,14,22,24.90
2013,07,01,14,23,24.80
2013,07,01,14,24,24.80
2013,07,01,14,25,24.80
2013,07,01,14,26,24.80
2013,07,01,14,27,24.90
2013,07,01,14,28,24.90
2013,07,01,14,29,25.00
2013,07,01,14,30,25.10
2013,07,01,14,31,25.10
2013,07,01,14,32,25.20
2013,07,01,14,33,25.30
2013,07,01,14,34,25.30
2013,07,01,14,35,25.30
2013,07,01,14,36,25.20
2013,07,01,14,37,25.20
2013,07,01,14,38,25.20
2013,07,01,14,39,25.10
2013,07,01,14,40,25.00
2013,07,01,14,41,24.90
2013,07,01,14,42,24.80
2013,07,01,14,43,24.60
2013,07,01,14,44,24.40
2013,07,01,14,45,24.30
2013,07,01,14,46,24.30
2013,07,01,14,47,24.20
2013,07,01,14,48,24.20
2013,07,01,14,49,24.20
2013,07,01,14,50,24.20
2013,07,01,14,51,24.20
2013,07,01,14,52,24.20
2013,07,01,14,53,24.20
2013,07,01,14,54,24.20
2013,07,01,14,55,24.10
2013,07,01,14,56,24.10
2013,07,01,14,57,24.00
2013,07,01,14,58,23.90
2013,07,01,14,59,23.90
2013,07,01,15,00,23.90
2013,07,01,15,01,23.80
2013,07,01,15,02,23.80
2013,07,01,15,03,23.80
2013,07,01,15,04,23.80
2013,07,01,15,05,23.80
2013,07,01,15,06,23.60
2013,07,01,15,07,23.40
2013,07,01,15,08,23.20
2013,07,01,15,09,23.00
2013,07,01,15,10,22.80
2013,07,01,15,11,22.60
2013,07,01,15,12,22.40
2013,07,01,15,13,22.30
2013,07,01,15,14,22.30
2013,07,01,15,15,22.20
2013,07,01,15,16,22.10
2013,07,01,15,17,22.10
2013,07,01,15,18,22.20
2013,07,01,15,19,22.30
2013,07,01,15,20,22.40
2013,07,01,15,21,22.50
2013,07,01,15,22,22.50
2013,07,01,15,23,22.60
2013,07,01,15,24,22.60
2013,07,01,15,25,22.70
2013,07,01,15,26,22.70
2013,07,01,15,27,22.80
2013,07,01,15,28,22.90
2013,07,01,15,29,23.10
2013,07,01,15,30,23.20
2013,07,01,15,31,23.40
2013,07,01,15,32,23.60
2013,07,01,15,33,23.70
2013,07,01,15,34,23.80
2013,07,01,15,35,23.90
2013,07,01,15,36,24.00
2013,07,01,15,37,24.10
2013,07,01,15,38,24.10
2013,07,01,15,39,24.20
2013,07,01,15,40,24.30
2013,07,01,15,41,24.20
2013,07,01,15,42,24.10
2013,07,01,15,43,24.00
2013,07,01,15,44,24.00
2013,07,01,15,45,23.90
2013,07,01,15,46,23.80
2013,07,01,15,47,23.70
2013,07,01,15,48,23.70
2013,07,01,15,49,23.70
2013,07,01,15,50,23.60
2013,07,01,15,51,23.60
2013,07,01,15,52,23.50
2013,07,01,15,53,23.40
2013,07,01,15,54,23.30
2013,07,01,15,55,23.20
2013,07,01,15,56,23.10
2013,07,01,15,57,23.00
2013,07,01,15,58,22.90
2013,07,01,15,59,22.90
2013,07,01,16,00,23.00
2013,07,01,16,01,23.00
2013,07,01,16,02,22.90
2013,07,01,16,03,22.90
2013,07,01,16,04,22.90
2013,07,01,16,05,22.80
2013,07,01,16,06,22.80
2013,07,01,16,07,22.70
2013,07,01,16,08,22.70
2013,07,01,16,09,22.70
2013,07,01,16,10,22.70
2013,07,01,16,11,22.70
2013,07,01,16,12,22.70
2013,07,01,16,13,22.70
2013,07,01,16,14,22.70
2013,07,01,16,15,22.80
2013,07,01,16,16,22.80
2013,07,01,16,17,22.80
2013,07,01,16,18,22.80
2013,07,01,16,19,22.80
2013,07,01,16,20,22.80
2013,07,01,16,21,22.70
2013,07,01,16,22,22.70
2013,07,01,16,23,22.60
2013,07,01,16,24,22.60
2013,07,01,16,25,22.60
2013,07,01,16,26,22.60
2013,07,01,16,27,22.60
2013,07,01,16,28,22.70
2013,07,01,16,29,22.70
2013,07,01,16,30,22.80
2013,07,01,16,31,22.80
2013,07,01,16,32,22.90
2013,07,01,16,33,23.00
2013,07,01,16,34,23.10
2013,07,01,16,35,23.10
2013,07,01,16,36,23.20
2013,07,01,16,37,23.30
2013,07,01,16,38,23.30
2013,07,01,16,39,23.30
2013,07,01,16,40,23.30
2013,07,01,16,41,23.30
2013,07,01,16,42,23.30
2013,07,01,16,43,23.30
2013,07,01,16,44,23.30
2013,07,01,16,45,23.30
2013,07,01,16,46,23.30
2013,07,01,16,47,23.30
2013,07,01,16,48,23.40
2013,07,01,16,49,23.40
2013,07,01,16,50,23.50
2013,07,01,16,51,23.60
2013,07,01,16,52,23.60
2013,07,01,16,53,23.70
2013,07,01,16,54,23.70
2013,07,01,16,55,23.60
2013,07,01,16,56,23.60
2013,07,01,16,57,23.60
2013,07,01,16,58,23.50
2013,07,01,16,59,23.40
2013,07,01,17,00,23.30
2013,07,01,17,01,23.30
2013,07,01,17,02,23.20
2013,07,01,17,03,23.20
2013,07,01,17,04,23.20
2013,07,01,17,05,23.20
2013,07,01,17,06,23.20
2013,07,01,17,07,23.30
2013,07,01,17,08,23.30
2013,07,01,17,09,23.40
2013,07,01,17,10,23.50
2013,07,01,17,11,23.60
2013,07,01,17,12,23.60
2013,07,01,17,13,23.70
2013,07,01,17,14,23.80
2013,07,01,17,15,23.80
2013,07,01,17,16,23.80
2013,07,01,17,17,23.80
2013,07,01,17,18,23.80
2013,07,01,17,19,23.80
2013,07,01,17,20,23.80
2013,07,01,17,21,23.70
2013,07,01,17,22,23.70